OE3APM-13 Weather Reports


Display with metric or nautical units.
time (UTC)temp
F
wind
direction
speed
MPH
gust
MPH
rain 1hr
in
rain 24hr
in
rain mn
in
humidity
%
barometer
mb
20260905115112 70 350 9.0 18.0 0.00 0.11 0.11 62 1021.1
20260905114606 69 256 9.0 18.0 0.00 0.11 0.11 64 1021.2
20260905114107 69 271 9.0 17.0 0.00 0.11 0.11 65 1021.1
20260905113609 68 265 8.0 17.0 0.00 0.11 0.11 66 1021.1
20260905113106 68 289 8.0 14.0 0.00 0.11 0.11 66 1021.3
20260905112606 68 302 8.0 14.0 0.00 0.11 0.11 64 1021.3
20260905112107 69 282 8.0 15.0 0.00 0.11 0.11 64 1021.3
20260905111606 69 246 9.0 18.0 0.00 0.11 0.11 64 1021.3
20260905111108 69 288 9.0 19.0 0.00 0.11 0.11 66 1021.3
20260905110605 68 239 8.0 19.0 0.00 0.11 0.11 64 1021.4
20260905110108 69 205 7.0 16.0 0.00 0.11 0.11 65 1021.3
20260905105605 69 283 7.0 19.0 0.00 0.11 0.11 62 1021.3
20260905105106 69 274 6.0 19.0 0.00 0.11 0.11 63 1021.4
20260905104603 68 130 6.0 13.0 0.00 0.11 0.11 66 1021.4
20260905104104 68 280 6.0 13.0 0.00 0.11 0.11 64 1021.3
20260905103602 69 297 7.0 13.0 0.00 0.11 0.11 66 1021.4
20260905103104 68 314 8.0 15.0 0.00 0.11 0.11 66 1021.4
20260905102558 68 296 8.0 15.0 0.00 0.11 0.11 68 1021.3
20260905102057 67 275 8.0 15.0 0.00 0.11 0.11 68 1021.3
20260905101549 67 282 6.0 15.0 0.00 0.11 0.11 66 1021.3
20260905101045 67 283 6.0 15.0 0.00 0.11 0.11 67 1021.4
20260905100532 67 257 5.0 13.0 0.00 0.11 0.11 69 1021.4
20260905100027 67 273 6.0 15.0 0.00 0.11 0.11 70 1021.4
20260905095522 67 260 8.0 16.0 0.00 0.11 0.11 70 1021.5
20260905095015 66 244 9.0 18.0 0.00 0.11 0.11 70 1021.4
20260905094510 66 290 9.0 19.0 0.00 0.11 0.11 71 1021.4
20260905094002 66 330 10.0 19.0 0.00 0.11 0.11 70 1021.5
20260905093502 66 278 9.0 17.0 0.00 0.11 0.11 70 1021.5
20260905092958 66 269 8.0 17.0 0.00 0.11 0.11 72 1021.5
20260905092457 65 189 8.0 16.0 0.00 0.11 0.11 75 1021.6
20260905091957 65 253 7.0 16.0 0.00 0.11 0.11 77 1021.5
20260905091453 65 288 8.0 16.0 0.00 0.11 0.11 77 1021.6
20260905090951 65 247 7.0 14.0 0.00 0.11 0.11 77 1021.6
20260905090451 64 267 7.0 15.0 0.00 0.11 0.11 80 1021.6
20260905085951 64 232 5.0 15.0 0.00 0.11 0.11 80 1021.6
20260905085450 63 248 4.0 10.0 0.00 0.11 0.11 85 1021.5
20260905084952 62 224 5.0 9.0 0.00 0.11 0.11 86 1021.3
20260905084445 61 237 4.0 10.0 0.00 0.11 0.11 85 1021.5
20260905083945 61 216 4.0 10.0 0.00 0.11 0.11 85 1021.4
20260905083441 60 257 4.0 10.0 0.00 0.11 0.11 84 1021.3
20260905082941 60 240 4.0 10.0 0.00 0.11 0.11 85 1021.3
20260905082441 60 249 4.0 10.0 0.00 0.11 0.11 85 1021.2
20260905081950 60 277 4.0 10.0 0.00 0.11 0.11 88 1021.1
20260905081440 59 257 4.0 8.0 0.01 0.11 0.11 88 1021.1
20260905080940 59 237 5.0 8.0 0.01 0.11 0.11 88 1021.1
20260905080439 59 248 5.0 9.0 0.01 0.11 0.11 89 1021.2
20260905075934 59 257 5.0 9.0 0.01 0.11 0.11 89 1021.1
20260905075424 58 223 6.0 10.0 0.01 0.11 0.11 90 1021.1
20260905074921 58 246 6.0 12.0 0.01 0.11 0.11 91 1021.1
20260905074418 58 244 5.0 12.0 0.01 0.11 0.11 91 1021.0
20260905073908 57 271 5.0 11.0 0.02 0.11 0.11 90 1021.0
20260905073403 57 203 5.0 10.0 0.02 0.11 0.11 90 1020.9
20260905072854 57 229 4.0 10.0 0.02 0.11 0.11 90 1020.7
20260905072353 57 247 4.0 9.0 0.02 0.11 0.11 90 1020.5
20260905071846 57 229 4.0 9.0 0.02 0.11 0.11 90 1020.2
20260905071342 57 230 4.0 9.0 0.02 0.10 0.10 90 1020.2
20260905070840 57 232 4.0 8.0 0.02 0.10 0.10 89 1020.0
20260905070340 57 241 3.0 7.0 0.02 0.10 0.10 89 1019.8
20260905065838 57 240 3.0 9.0 0.02 0.10 0.10 89 1019.6
20260905065339 57 212 4.0 10.0 0.02 0.10 0.10 89 1019.9
20260905064839 57 246 5.0 10.0 0.03 0.10 0.10 89 1020.3
20260905064339 57 254 5.0 9.0 0.03 0.09 0.09 90 1020.4
20260905063838 57 245 4.0 8.0 0.04 0.09 0.09 90 1020.3
20260905063338 57 211 3.0 8.0 0.04 0.09 0.09 89 1019.9
20260905062836 57 268 3.0 8.0 0.05 0.09 0.09 89 1019.9
20260905062335 57 266 3.0 6.0 0.06 0.09 0.09 89 1020.2
20260905061835 57 285 2.0 6.0 0.06 0.09 0.09 88 1020.2
20260905061334 57 298 2.0 6.0 0.06 0.09 0.09 88 1020.5
20260905060833 57 296 3.0 6.0 0.06 0.09 0.09 88 1020.6
20260905060332 57 288 3.0 6.0 0.06 0.09 0.09 87 1020.4
20260905055833 57 248 3.0 10.0 0.06 0.09 0.09 87 1020.7
20260905055332 57 274 4.0 11.0 0.05 0.08 0.08 87 1020.7
20260905054831 58 285 4.0 11.0 0.04 0.07 0.07 87 1021.2
20260905054324 58 269 4.0 8.0 0.03 0.06 0.06 87 1021.2
20260905053823 58 328 5.0 10.0 0.02 0.06 0.06 86 1020.9
20260905053322 58 302 4.0 10.0 0.02 0.06 0.05 86 1020.9
20260905052822 58 302 4.0 9.0 0.02 0.05 0.05 86 1020.8
20260905052322 58 275 4.0 8.0 0.01 0.04 0.03 86 1020.8
20260905051822 58 291 2.0 5.0 0.00 0.03 0.03 86 1020.6
20260905051323 58 315 1.0 5.0 0.00 0.03 0.03 86 1019.9
20260905050826 58 302 0.0 3.0 0.00 0.03 0.03 86 1019.9
20260905050322 58 302 0.0 5.0 0.02 0.03 0.03 85 1020.2
20260905045824 58 302 1.0 5.0 0.02 0.03 0.03 85 1019.9
20260905045325 58 302 3.0 5.0 0.02 0.03 0.03 85 1020.2
20260905044824 58 329 2.0 5.0 0.03 0.03 0.03 84 1019.9
20260905044322 59 316 2.0 4.0 0.03 0.03 0.03 84 1019.8
20260905043823 59 344 1.0 4.0 0.03 0.03 0.03 84 1019.4
20260905043316 59 349 1.0 3.0 0.03 0.03 0.03 84 1019.3
20260905042812 59 350 1.0 4.0 0.03 0.03 0.03 83 1019.2
20260905042309 59 351 2.0 4.0 0.03 0.03 0.03 83 1019.4
20260905041808 60 327 3.0 5.0 0.03 0.03 0.03 82 1019.3
20260905041308 60 326 3.0 5.0 0.03 0.03 0.03 81 1019.2
20260905040808 60 327 4.0 10.0 0.03 0.03 0.03 80 1019.3
20260905040307 61 306 5.0 10.0 0.02 0.02 0.01 80 1019.3
20260905035805 61 320 3.0 6.0 0.01 0.01 0.01 79 1019.1
20260905035306 61 324 2.0 6.0 0.01 0.01 0.01 77 1019.0
20260905034805 62 313 3.0 7.0 0.00 0.00 0.00 76 1018.8
20260905034306 62 307 4.0 9.0 0.00 0.00 0.00 75 1019.1
20260905033816 62 327 4.0 9.0 0.00 0.00 0.00 73 1018.9
20260905033306 62 324 3.0 7.0 0.00 0.00 0.00 72 1018.7
20260905032804 62 290 3.0 6.0 0.00 0.00 0.00 71 1018.9
20260905032306 63 305 3.0 6.0 0.00 0.00 0.00 70 1018.4
20260905031801 63 336 3.0 5.0 0.00 0.00 0.00 69 1017.9
20260905031302 63 298 3.0 5.0 0.00 0.00 0.00 69 1018.2
20260905030802 63 282 4.0 6.0 0.00 0.00 0.00 68 1018.0
20260905030302 63 305 6.0 11.0 0.00 0.00 0.00 67 1018.0
20260905025802 63 311 7.0 13.0 0.00 0.00 0.00 66 1017.9
20260905025306 64 342 6.0 13.0 0.00 0.00 0.00 66 1017.8
20260905024803 64 336 5.0 11.0 0.00 0.00 0.00 68 1018.5
20260905024303 64 344 4.0 11.0 0.00 0.00 0.00 68 1018.2
20260905023803 64 303 4.0 7.0 0.00 0.00 0.00 68 1017.7
20260905023300 64 318 5.0 8.0 0.00 0.00 0.00 68 1017.8
20260905022754 64 300 7.0 12.0 0.00 0.00 0.00 68 1017.6
20260905022254 64 329 9.0 14.0 0.00 0.00 0.00 67 1017.5
20260905021755 64 342 9.0 14.0 0.00 0.00 0.00 67 1017.5
20260905021256 65 339 9.0 14.0 0.00 0.00 0.00 67 1017.3
20260905020752 65 340 9.0 14.0 0.00 0.00 0.00 68 1017.4
20260905015752 66 22 9.0 18.0 0.00 0.00 0.00 69 1017.1
20260905015253 66 351 10.0 18.0 0.00 0.00 0.00 69 1016.9
20260905014749 67 342 10.0 15.0 0.00 0.00 0.00 68 1016.9
20260905014249 67 0 10.0 19.0 0.00 0.00 0.00 67 1016.9
20260905013739 68 24 12.0 22.0 0.00 0.00 0.00 66 1016.5
20260905013238 69 54 14.0 23.0 0.00 0.00 0.00 64 1016.5
20260905012738 71 15 11.0 23.0 0.00 0.00 0.00 61 1016.2
20260905012241 71 37 4.0 9.0 0.00 0.00 0.00 60 1015.9
20260905011738 71 326 2.0 6.0 0.00 0.00 0.00 61 1015.6
20260905011240 71 291 2.0 5.0 0.00 0.00 0.00 61 1015.4
20260905010738 71 263 3.0 5.0 0.00 0.00 0.00 60 1015.4
20260905010238 71 284 3.0 7.0 0.00 0.00 0.00 60 1015.4
20260905005740 72 290 3.0 7.0 0.00 0.00 0.00 59 1015.4
20260905005240 72 297 3.0 7.0 0.00 0.00 0.00 59 1015.4
20260905004740 72 283 3.0 9.0 0.00 0.00 0.00 58 1015.2
20260905004238 72 268 2.0 9.0 0.00 0.00 0.00 58 1015.1
20260905003738 73 268 3.0 6.0 0.00 0.00 0.00 58 1015.1
20260905003238 73 288 4.0 9.0 0.00 0.00 0.00 58 1015.0
20260905002737 73 257 4.0 9.0 0.00 0.00 0.00 57 1014.9
20260905002238 73 309 3.0 8.0 0.00 0.00 0.00 57 1014.9
20260905001740 73 258 4.0 12.0 0.00 0.00 0.00 56 1014.8
20260905001240 73 259 4.0 13.0 0.00 0.00 0.00 56 1014.7
20260905000736 73 279 5.0 13.0 0.00 0.00 0.00 56 1014.7
20260905000236 73 267 4.0 10.0 0.00 0.00 0.00 56 1014.7
20260904235737 73 239 5.0 10.0 0.00 0.00 0.00 57 1014.7
20260904235234 73 213 5.0 11.0 0.00 0.00 0.00 57 1014.7
20260904234734 72 215 5.0 11.0 0.00 0.00 0.00 58 1014.5
20260904234235 72 211 4.0 10.0 0.00 0.00 0.00 58 1014.7
20260904233736 72 256 5.0 10.0 0.00 0.00 0.00 59 1014.7
20260904233233 71 211 5.0 10.0 0.00 0.00 0.00 60 1014.5
20260904232734 71 221 5.0 10.0 0.00 0.00 0.00 61 1014.4
20260904232232 70 232 5.0 9.0 0.00 0.00 0.00 63 1014.5
20260904231729 69 223 4.0 9.0 0.00 0.00 0.00 65 1014.5
20260904231230 68 246 4.0 10.0 0.00 0.00 0.00 67 1014.5
20260904230730 66 244 5.0 10.0 0.00 0.00 0.00 69 1014.5
20260904230232 65 226 4.0 9.0 0.00 0.00 0.00 71 1014.4
20260904225731 63 238 3.0 7.0 0.00 0.00 0.00 74 1014.5
20260904225231 63 221 2.0 7.0 0.00 0.00 0.00 77 1014.4
20260904224730 62 239 1.0 4.0 0.00 0.00 0.00 80 1014.4
20260904224230 62 236 1.0 4.0 0.00 0.00 0.00 80 1014.4
20260904223724 62 236 2.0 4.0 0.00 0.00 0.00 79 1014.4
20260904223222 62 235 2.0 4.0 0.00 0.00 0.00 80 1014.3
20260904222722 62 235 2.0 4.0 0.00 0.00 0.00 82 1014.3
20260904222222 62 241 1.0 4.0 0.00 0.00 0.00 82 1014.3
20260904221725 62 228 0.0 3.0 0.00 0.00 0.00 82 1014.3
20260904221222 62 226 0.0 0.0 0.00 0.00 0.00 82 1014.2
20260904220722 62 226 0.0 1.0 0.00 0.00 0.00 82 1014.1
20260904220222 62 226 0.0 2.0 0.00 0.00 0.00 81 1014.0
20260904215723 62 226 1.0 3.0 0.00 0.00 0.00 80 1014.0
20260904215215 62 226 2.0 3.0 0.00 0.00 0.00 80 1014.0
20260904214708 62 226 1.0 3.0 0.00 0.00 0.00 80 1014.0
20260904214208 62 226 0.0 2.0 0.00 0.00 0.00 79 1013.9
20260904213710 62 228 0.0 0.0 0.00 0.00 0.00 79 1014.0
20260904213207 62 228 0.0 0.0 0.00 0.00 0.00 78 1014.0
20260904212709 62 228 0.0 0.0 0.00 0.00 0.00 77 1014.0
20260904212207 62 228 1.0 2.0 0.00 0.00 0.00 78 1014.0
20260904211705 62 228 1.0 3.0 0.00 0.00 0.00 78 1014.0
20260904211206 63 228 1.0 3.0 0.00 0.00 0.00 79 1014.0
20260904210706 63 228 0.0 3.0 0.00 0.00 0.00 76 1014.1
20260904210204 63 228 0.0 0.0 0.00 0.00 0.00 75 1014.1
20260904205704 63 228 0.0 0.0 0.00 0.00 0.00 74 1014.1
20260904205206 63 228 0.0 2.0 0.00 0.00 0.00 74 1014.1
20260904204703 63 228 0.0 2.0 0.00 0.00 0.00 73 1014.1
20260904204153 63 228 0.0 2.0 0.00 0.00 0.00 74 1014.3
20260904203641 64 228 1.0 2.0 0.00 0.00 0.00 73 1014.3
20260904203142 64 228 1.0 2.0 0.00 0.00 0.00 72 1014.3
20260904202640 64 228 0.0 2.0 0.00 0.00 0.00 72 1014.3
20260904202137 64 229 0.0 0.0 0.00 0.00 0.00 70 1014.4
20260904201635 64 228 0.0 0.0 0.00 0.00 0.00 71 1014.4
20260904201134 65 228 0.0 0.0 0.00 0.00 0.00 69 1014.5
20260904200634 65 228 0.0 0.0 0.00 0.00 0.00 70 1014.5
20260904200133 65 228 0.0 0.0 0.00 0.00 0.00 70 1014.5
20260904195633 66 228 0.0 0.0 0.00 0.00 0.00 68 1014.7
20260904195131 66 229 0.0 0.0 0.00 0.00 0.00 67 1014.5
20260904194631 67 228 0.0 0.0 0.00 0.00 0.00 67 1014.5
20260904194131 67 228 0.0 0.0 0.00 0.00 0.00 67 1014.5
20260904193629 67 228 0.0 0.0 0.00 0.00 0.00 65 1014.5
20260904193131 68 228 0.0 0.0 0.00 0.00 0.00 64 1014.4
20260904192629 68 228 0.0 0.0 0.00 0.00 0.00 63 1014.5
20260904192129 69 228 0.0 0.0 0.00 0.00 0.00 63 1014.4
20260904191629 69 228 0.0 0.0 0.00 0.00 0.00 63 1014.5
20260904191123 70 228 0.0 0.0 0.00 0.00 0.00 62 1014.5
20260904190623 71 228 0.0 0.0 0.00 0.00 0.00 60 1014.5
20260904190119 71 228 0.0 0.0 0.00 0.00 0.00 60 1014.4
20260904185617 72 228 0.0 0.0 0.00 0.00 0.00 60 1014.4
20260904185117 73 228 0.0 0.0 0.00 0.00 0.00 58 1014.3
20260904184615 74 228 0.0 0.0 0.00 0.00 0.00 56 1014.3
20260904184115 75 228 0.0 0.0 0.00 0.00 0.00 55 1014.3
20260904183614 75 228 0.0 0.0 0.00 0.00 0.00 53 1014.2
20260904183113 76 228 0.0 0.0 0.00 0.00 0.00 54 1014.2
20260904182613 77 228 0.0 3.0 0.00 0.00 0.00 52 1014.1
20260904182112 77 228 1.0 4.0 0.00 0.00 0.00 49 1014.1
20260904181611 77 228 3.0 5.0 0.00 0.00 0.00 47 1014.0
20260904181109 77 228 3.0 5.0 0.00 0.00 0.00 47 1013.9
20260904180607 78 232 4.0 6.0 0.00 0.00 0.00 46 1013.8
20260904180108 78 254 4.0 7.0 0.00 0.00 0.00 46 1013.7
20260904175605 78 240 5.0 8.0 0.00 0.00 0.00 45 1013.7
20260904175102 78 221 5.0 8.0 0.00 0.00 0.00 45 1013.6
20260904174601 79 229 6.0 12.0 0.00 0.00 0.00 45 1013.6
20260904174100 79 227 6.0 12.0 0.00 0.00 0.00 45 1013.6
20260904173601 79 248 6.0 11.0 0.00 0.00 0.00 44 1013.7
20260904173053 79 215 6.0 11.0 0.00 0.00 0.00 44 1013.7
20260904172553 80 236 5.0 11.0 0.00 0.00 0.00 44 1013.7
20260904172052 80 220 5.0 10.0 0.00 0.00 0.00 44 1013.7
20260904171551 80 236 5.0 10.0 0.00 0.00 0.00 43 1013.8
20260904171051 80 242 6.0 11.0 0.00 0.00 0.00 43 1013.8
20260904170549 80 221 6.0 13.0 0.00 0.00 0.00 43 1013.8
20260904170051 81 214 6.0 13.0 0.00 0.00 0.00 43 1013.7
20260904165546 81 259 6.0 11.0 0.00 0.00 0.00 43 1013.7
20260904165048 81 259 6.0 12.0 0.00 0.00 0.00 42 1013.7
20260904164545 81 252 8.0 16.0 0.00 0.00 0.00 42 1013.8
20260904164043 82 219 8.0 17.0 0.00 0.00 0.00 42 1013.8
20260904163541 82 196 8.0 18.0 0.00 0.00 0.00 41 1013.8
20260904163041 82 296 7.0 18.0 0.00 0.00 0.00 41 1013.9
20260904162541 82 254 7.0 16.0 0.00 0.00 0.00 41 1013.9
20260904162039 83 234 8.0 18.0 0.00 0.00 0.00 41 1014.0
20260904161538 83 262 8.0 18.0 0.00 0.00 0.00 40 1014.0
20260904161037 83 265 8.0 16.0 0.00 0.00 0.00 40 1014.1
20260904160539 83 211 8.0 16.0 0.00 0.00 0.00 40 1014.1
20260904160032 83 217 8.0 18.0 0.00 0.00 0.00 40 1014.1
20260904155530 83 243 10.0 20.0 0.00 0.00 0.00 39 1014.2
20260904155032 84 244 10.0 20.0 0.00 0.00 0.00 39 1014.2
20260904154531 84 232 9.0 19.0 0.00 0.00 0.00 39 1014.4
20260904154033 84 241 10.0 19.0 0.00 0.00 0.00 39 1014.3
20260904153532 84 266 8.0 18.0 0.00 0.00 0.00 39 1014.3
20260904153030 84 213 8.0 15.0 0.00 0.00 0.00 39 1014.4
20260904152531 84 230 8.0 17.0 0.00 0.00 0.00 39 1014.5
20260904152031 85 220 8.0 20.0 0.00 0.00 0.00 39 1014.8
20260904151532 85 223 7.0 20.0 0.00 0.00 0.00 39 1014.8
20260904151031 85 196 7.0 15.0 0.00 0.00 0.00 39 1014.9
20260904150531 85 221 7.0 13.0 0.00 0.00 0.00 41 1015.0
20260904150030 85 244 7.0 12.0 0.00 0.00 0.00 41 1015.0
20260904145531 85 240 7.0 17.0 0.00 0.00 0.00 40 1015.1
20260904145031 85 263 7.0 17.0 0.00 0.00 0.00 41 1015.2
20260904144531 85 232 7.0 15.0 0.00 0.00 0.00 41 1015.3
20260904144030 85 214 7.0 15.0 0.00 0.00 0.00 41 1015.3
20260904143524 85 249 8.0 17.0 0.00 0.00 0.00 41 1015.5
20260904143019 85 248 8.0 17.0 0.00 0.00 0.00 41 1015.4
20260904142517 85 222 7.0 16.0 0.00 0.00 0.00 41 1015.6
20260904142017 84 281 7.0 16.0 0.00 0.00 0.00 41 1015.7
20260904141518 84 259 9.0 15.0 0.00 0.00 0.00 41 1015.8
20260904141016 84 221 9.0 16.0 0.00 0.00 0.00 41 1015.8
20260904140517 84 273 8.0 22.0 0.00 0.00 0.00 42 1015.9
20260904140015 84 248 8.0 22.0 0.00 0.00 0.00 43 1015.8
20260904135514 83 222 11.0 22.0 0.00 0.00 0.00 43 1015.9
20260904135011 84 234 11.0 22.0 0.00 0.00 0.00 42 1016.0
20260904134511 84 223 8.0 21.0 0.00 0.00 0.00 42 1016.0
20260904134013 84 197 8.0 18.0 0.00 0.00 0.00 43 1016.1
20260904133510 84 191 10.0 22.0 0.00 0.00 0.00 43 1016.1
20260904133010 84 238 11.0 22.0 0.00 0.00 0.00 42 1016.1
20260904132507 84 241 9.0 17.0 0.00 0.00 0.00 43 1016.1
20260904132007 84 223 8.0 17.0 0.00 0.00 0.00 43 1016.2
20260904131506 84 221 7.0 17.0 0.00 0.00 0.00 41 1016.3
20260904131005 84 241 7.0 19.0 0.00 0.00 0.00 42 1016.3
20260904130506 84 261 10.0 21.0 0.00 0.00 0.00 43 1016.6
20260904130006 84 284 10.0 21.0 0.00 0.00 0.00 43 1016.6
20260904125503 84 267 10.0 20.0 0.00 0.00 0.00 42 1016.7
20260904125003 83 252 9.0 20.0 0.00 0.00 0.00 43 1016.7
20260904124504 83 232 10.0 20.0 0.00 0.00 0.00 42 1016.9
20260904124002 83 272 9.0 24.0 0.00 0.00 0.00 44 1016.9
20260904123503 83 286 9.0 24.0 0.00 0.00 0.00 44 1017.0
20260904123004 83 262 10.0 20.0 0.00 0.00 0.00 44 1017.0
20260904122505 83 247 9.0 20.0 0.00 0.00 0.00 44 1017.0
20260904122002 84 253 9.0 21.0 0.00 0.00 0.00 44 1017.0
20260904121502 83 324 9.0 21.0 0.00 0.00 0.00 45 1017.1
20260904121002 83 297 7.0 18.0 0.00 0.00 0.00 46 1017.2
20260904120504 83 271 8.0 17.0 0.00 0.00 0.00 47 1017.3
20260904120003 83 225 8.0 17.0 0.00 0.00 0.00 46 1017.4
20260904115503 83 245 8.0 21.0 0.00 0.00 0.00 47 1017.5